Regional Weather Roundup
Issued by NWS

Home | Current Version | Previous Version | Graphics & Text | Print | Product List | Glossary On
Versions: 1 2 3 4 5 6 7 8 9 10 11 12 13 14 15 16 17 18 19 20 21 22 23 24 25 26 27 28 29 30 31 32 33 34 35 36 37 38 39 40 41 42 43 44 45 46 47 48 49 50
000
ASUS43 KLSX 010057
RWRMO

WEATHER SUMMARY FOR MISSOURI
NATIONAL WEATHER SERVICE SPRINGFIELD MO
800 PM CDT TUE MAY 31 2016

NOTE: "FAIR" INDICATES FEW OR NO CLOUDS BELOW 12,000 FEET WITH NO
       SIGNIFICANT WEATHER AND/OR OBSTRUCTIONS TO VISIBILITY.
       CURRENT SKY AND/OR WEATHER CONDITIONS ARE NOT AVAILABLE FOR
       CHILLICOTHE AND FARMINGTON.

MOZ001>031-035>038-043-044-053-054-010200-
...NORTHERN AND WESTERN MISSOURI...

CITY           SKY/WX    TMP DP  RH WIND       PRES   REMARKS
KANSAS CTY INT CLOUDY    75  65  70 CALM      29.90S
LEE`S SUMMIT   CLEAR     74  65  73 NW5       29.90S
ST JOSEPH      MOCLDY    76  65  68 W3        29.90R
CHILLICOTHE      N/A     74  65  73 CALM      29.91R

$$
MOZ066>068-077>081-088>096-101>105-010200-
...SOUTHWEST MISSOURI...

CITY           SKY/WX    TMP DP  RH WIND       PRES   REMARKS
SPRINGFIELD    CLOUDY    75  64  68 S5        29.91R
JOPLIN         CLOUDY    71  65  81 S9        29.92R
BRANSON        CLOUDY    73  66  78 S5        29.93R

$$
MOZ032>034-039>042-045>050-055>058-069>072-010200-
...CENTRAL MISSOURI...

CITY           SKY/WX    TMP DP  RH WIND       PRES   REMARKS
COLUMBIA       NOT AVBL
JEFFERSON CITY MOCLDY    79  65  62 SE3       29.88R
SEDALIA        MOCLDY    78  65  63 SW3       29.90R
WARRENSBURG    CLOUDY    73  66  78 CALM      29.89R

$$
MOZ051-052-059>065-010200-
...EAST CENTRAL MISSOURI...

CITY           SKY/WX    TMP DP  RH WIND       PRES   REMARKS
ST LOUIS INTL  NOT AVBL

$$
MOZ072>076-082>087-097>100-106>115-010200-
...SOUTH CENTRAL AND SOUTHEAST MISSOURI...

CITY           SKY/WX    TMP DP  RH WIND       PRES   REMARKS
CAPE GIRARDEAU CLEAR     76  65  68 S3        29.89R
POPLAR BLUFF   CLEAR     78  67  68 CALM      29.90R
WEST PLAINS    CLOUDY    75  66  73 S3        29.94R

$$



USA.gov is the U.S. government's official web portal to all federal, state and local government web resources and services.